| time (UTC) | temp F | wind direction | speed MPH | gust MPH | rain 1hr in | rain 24hr in | rain mn in | humidity % | barometer mb |
| 20260509185023 | 64 | 360 | 7.0 | 17.0 | 0.00 | 0.06 | 0.05 | 37 | 1016.7 |
| 20260509184540 | 64 | 357 | 7.0 | 17.0 | 0.00 | 0.06 | 0.05 | 36 | 1016.6 |
| 20260509184022 | 63 | 46 | 6.0 | 12.0 | 0.00 | 0.06 | 0.05 | 35 | 1016.6 |
| 20260509183524 | 63 | 328 | 5.0 | 11.0 | 0.00 | 0.06 | 0.05 | 35 | 1016.7 |
| 20260509183041 | 63 | 359 | 5.0 | 17.0 | 0.00 | 0.06 | 0.05 | 34 | 1016.7 |
| 20260509182523 | 63 | 345 | 6.0 | 17.0 | 0.00 | 0.06 | 0.05 | 38 | 1016.7 |
| 20260509182022 | 63 | 359 | 5.0 | 13.0 | 0.00 | 0.06 | 0.05 | 37 | 1016.7 |
| 20260509181536 | 63 | 321 | 4.0 | 13.0 | 0.00 | 0.06 | 0.05 | 38 | 1016.8 |
| 20260509181026 | 63 | 2 | 5.0 | 12.0 | 0.00 | 0.06 | 0.05 | 43 | 1016.7 |
| 20260509180524 | 62 | 358 | 4.0 | 12.0 | 0.00 | 0.06 | 0.05 | 42 | 1016.8 |
| 20260509180037 | 62 | 328 | 6.0 | 13.0 | 0.00 | 0.06 | 0.05 | 46 | 1016.8 |
| 20260509175522 | 61 | 324 | 5.0 | 13.0 | 0.00 | 0.06 | 0.05 | 49 | 1017.0 |
| 20260509175027 | 60 | 15 | 5.0 | 11.0 | 0.00 | 0.06 | 0.05 | 49 | 1017.0 |
| 20260509174537 | 59 | 338 | 4.0 | 11.0 | 0.00 | 0.06 | 0.05 | 48 | 1017.1 |
| 20260509174023 | 59 | 332 | 4.0 | 11.0 | 0.00 | 0.06 | 0.05 | 48 | 1017.1 |
| 20260509173523 | 59 | 337 | 6.0 | 10.0 | 0.00 | 0.06 | 0.05 | 49 | 1017.1 |
| 20260509173051 | 59 | 318 | 4.0 | 10.0 | 0.00 | 0.06 | 0.05 | 47 | 1017.0 |
| 20260509172523 | 60 | 323 | 2.0 | 11.0 | 0.00 | 0.06 | 0.05 | 48 | 1017.1 |
| 20260509172026 | 60 | 322 | 5.0 | 11.0 | 0.00 | 0.06 | 0.05 | 48 | 1017.0 |
| 20260509171546 | 59 | 349 | 6.0 | 11.0 | 0.00 | 0.06 | 0.05 | 48 | 1017.1 |
| 20260509171023 | 59 | 338 | 5.0 | 13.0 | 0.00 | 0.06 | 0.05 | 47 | 1017.1 |
| 20260509170523 | 59 | 345 | 6.0 | 14.0 | 0.00 | 0.06 | 0.05 | 47 | 1017.0 |
| 20260509170042 | 59 | 1 | 7.0 | 14.0 | 0.00 | 0.06 | 0.05 | 43 | 1017.0 |
| 20260509165526 | 59 | 328 | 6.0 | 12.0 | 0.00 | 0.06 | 0.05 | 44 | 1017.0 |
| 20260509165023 | 59 | 359 | 7.0 | 14.0 | 0.00 | 0.06 | 0.05 | 44 | 1017.0 |
| 20260509164546 | 59 | 328 | 7.0 | 14.0 | 0.00 | 0.06 | 0.05 | 45 | 1016.9 |
| 20260509164028 | 61 | 348 | 6.0 | 13.0 | 0.00 | 0.06 | 0.05 | 46 | 1016.7 |
| 20260509163524 | 61 | 339 | 5.0 | 15.0 | 0.00 | 0.06 | 0.05 | 50 | 1016.7 |
| 20260509163049 | 60 | 1 | 8.0 | 15.0 | 0.00 | 0.06 | 0.05 | 50 | 1016.9 |
| 20260509162524 | 60 | 297 | 6.0 | 14.0 | 0.00 | 0.06 | 0.05 | 50 | 1016.6 |
| 20260509162024 | 60 | 34 | 6.0 | 14.0 | 0.00 | 0.06 | 0.05 | 48 | 1016.6 |
| 20260509161537 | 59 | 326 | 5.0 | 14.0 | 0.00 | 0.06 | 0.05 | 54 | 1016.5 |
| 20260509161023 | 59 | 342 | 7.0 | 13.0 | 0.00 | 0.06 | 0.05 | 55 | 1016.4 |
| 20260509160523 | 58 | 307 | 3.0 | 8.0 | 0.00 | 0.06 | 0.05 | 60 | 1016.3 |
| 20260509160037 | 56 | 347 | 2.0 | 7.0 | 0.00 | 0.06 | 0.05 | 65 | 1016.4 |
| 20260509155522 | 55 | 334 | 1.0 | 4.0 | 0.00 | 0.06 | 0.05 | 68 | 1016.4 |
| 20260509155026 | 54 | 342 | 1.0 | 3.0 | 0.00 | 0.06 | 0.05 | 72 | 1016.4 |
| 20260509154537 | 54 | 0 | 0.0 | 5.0 | 0.00 | 0.06 | 0.05 | 71 | 1016.4 |
| 20260509154026 | 54 | 336 | 1.0 | 5.0 | 0.00 | 0.06 | 0.05 | 72 | 1016.6 |
| 20260509153528 | 54 | 347 | 2.0 | 4.0 | 0.00 | 0.06 | 0.05 | 71 | 1016.8 |
| 20260509153038 | 54 | 342 | 0.0 | 4.0 | 0.00 | 0.06 | 0.05 | 70 | 1016.9 |
| 20260509152526 | 54 | 211 | 1.0 | 4.0 | 0.00 | 0.06 | 0.05 | 69 | 1017.0 |
| 20260509152026 | 55 | 247 | 1.0 | 3.0 | 0.00 | 0.06 | 0.05 | 70 | 1017.0 |
| 20260509151537 | 55 | 286 | 1.0 | 9.0 | 0.00 | 0.06 | 0.05 | 70 | 1016.9 |
| 20260509151026 | 55 | 329 | 2.0 | 9.0 | 0.00 | 0.06 | 0.05 | 67 | 1016.7 |
| 20260509150528 | 56 | 350 | 4.0 | 12.0 | 0.00 | 0.06 | 0.05 | 69 | 1016.4 |
| 20260509150037 | 56 | 311 | 5.0 | 12.0 | 0.00 | 0.06 | 0.05 | 67 | 1016.4 |
| 20260509145529 | 55 | 343 | 6.0 | 12.0 | 0.00 | 0.06 | 0.05 | 67 | 1016.3 |
| 20260509145027 | 55 | 350 | 5.0 | 11.0 | 0.00 | 0.06 | 0.05 | 68 | 1016.2 |
| 20260509144544 | 55 | 311 | 4.0 | 12.0 | 0.00 | 0.06 | 0.05 | 69 | 1016.1 |
| 20260509144026 | 55 | 333 | 5.0 | 12.0 | 0.00 | 0.06 | 0.05 | 69 | 1016.1 |
| 20260509143526 | 56 | 341 | 5.0 | 12.0 | 0.00 | 0.06 | 0.05 | 69 | 1016.0 |
| 20260509143037 | 56 | 337 | 4.0 | 12.0 | 0.00 | 0.06 | 0.05 | 69 | 1015.9 |
| 20260509142525 | 55 | 281 | 5.0 | 14.0 | 0.00 | 0.06 | 0.05 | 72 | 1015.9 |
| 20260509142027 | 54 | 342 | 4.0 | 14.0 | 0.00 | 0.06 | 0.05 | 72 | 1016.0 |
| 20260509141544 | 54 | 304 | 5.0 | 14.0 | 0.00 | 0.06 | 0.05 | 71 | 1015.8 |
| 20260509141027 | 54 | 327 | 5.0 | 11.0 | 0.00 | 0.06 | 0.05 | 72 | 1015.9 |
| 20260509140526 | 53 | 323 | 5.0 | 14.0 | 0.00 | 0.06 | 0.05 | 72 | 1015.8 |
| 20260509140042 | 53 | 298 | 5.0 | 14.0 | 0.00 | 0.06 | 0.05 | 73 | 1015.8 |
| 20260509135526 | 53 | 335 | 5.0 | 14.0 | 0.00 | 0.06 | 0.05 | 73 | 1015.8 |
| 20260509135027 | 53 | 359 | 5.0 | 10.0 | 0.00 | 0.06 | 0.05 | 75 | 1015.8 |
| 20260509134550 | 53 | 344 | 5.0 | 9.0 | 0.00 | 0.06 | 0.05 | 75 | 1015.7 |
| 20260509134031 | 52 | 266 | 4.0 | 9.0 | 0.00 | 0.06 | 0.05 | 76 | 1015.7 |
| 20260509133526 | 51 | 326 | 3.0 | 6.0 | 0.00 | 0.06 | 0.05 | 79 | 1015.5 |
| 20260509133038 | 51 | 334 | 2.0 | 6.0 | 0.00 | 0.06 | 0.05 | 81 | 1015.5 |
| 20260509132526 | 50 | 305 | 1.0 | 4.0 | 0.00 | 0.06 | 0.05 | 86 | 1015.5 |
| 20260509132026 | 50 | 0 | 0.0 | 3.0 | 0.00 | 0.06 | 0.05 | 88 | 1015.6 |
| 20260509131555 | 49 | 0 | 0.0 | 2.0 | 0.00 | 0.06 | 0.05 | 88 | 1015.5 |
| 20260509131026 | 49 | 0 | 0.0 | 2.0 | 0.00 | 0.06 | 0.05 | 88 | 1015.5 |
| 20260509130531 | 49 | 246 | 0.0 | 2.0 | 0.00 | 0.06 | 0.05 | 89 | 1015.4 |
| 20260509130048 | 49 | 0 | 0.0 | 2.0 | 0.00 | 0.06 | 0.05 | 88 | 1015.4 |
| 20260509125527 | 49 | 246 | 0.0 | 2.0 | 0.00 | 0.07 | 0.05 | 88 | 1015.2 |
| 20260509125026 | 49 | 0 | 0.0 | 2.0 | 0.00 | 0.07 | 0.05 | 88 | 1015.1 |
| 20260509124543 | 49 | 0 | 0.0 | 2.0 | 0.00 | 0.07 | 0.05 | 88 | 1015.3 |
| 20260509124026 | 49 | 0 | 0.0 | 3.0 | 0.00 | 0.07 | 0.05 | 88 | 1015.2 |
| 20260509123526 | 49 | 0 | 0.0 | 3.0 | 0.00 | 0.07 | 0.05 | 88 | 1015.2 |
| 20260509123048 | 49 | 259 | 1.0 | 3.0 | 0.00 | 0.07 | 0.05 | 88 | 1015.1 |
| 20260509122526 | 48 | 244 | 1.0 | 3.0 | 0.00 | 0.07 | 0.05 | 89 | 1015.0 |
| 20260509122024 | 48 | 212 | 1.0 | 3.0 | 0.00 | 0.07 | 0.05 | 89 | 1015.0 |
| 20260509121538 | 48 | 233 | 1.0 | 3.0 | 0.00 | 0.07 | 0.05 | 89 | 1014.9 |
| 20260509121026 | 48 | 0 | 0.0 | 2.0 | 0.00 | 0.07 | 0.05 | 89 | 1014.9 |
| 20260509120528 | 48 | 0 | 0.0 | 3.0 | 0.00 | 0.07 | 0.05 | 88 | 1014.6 |
| 20260509120038 | 49 | 221 | 1.0 | 3.0 | 0.01 | 0.07 | 0.05 | 88 | 1014.6 |
| 20260509115526 | 49 | 221 | 1.0 | 3.0 | 0.01 | 0.07 | 0.05 | 88 | 1014.6 |
| 20260509115026 | 49 | 217 | 0.0 | 2.0 | 0.01 | 0.07 | 0.05 | 87 | 1014.5 |
| 20260509114537 | 49 | 0 | 0.0 | 1.0 | 0.01 | 0.07 | 0.05 | 87 | 1014.4 |
| 20260509114026 | 49 | 0 | 0.0 | 2.0 | 0.01 | 0.07 | 0.05 | 87 | 1014.4 |
| 20260509113531 | 49 | 0 | 0.0 | 2.0 | 0.02 | 0.07 | 0.05 | 87 | 1014.5 |
| 20260509113046 | 49 | 179 | 0.0 | 2.0 | 0.02 | 0.07 | 0.05 | 86 | 1014.4 |
| 20260509112528 | 50 | 179 | 1.0 | 2.0 | 0.03 | 0.07 | 0.05 | 86 | 1014.3 |
| 20260509112027 | 50 | 179 | 1.0 | 2.0 | 0.03 | 0.07 | 0.05 | 85 | 1014.3 |
| 20260509111539 | 50 | 179 | 1.0 | 3.0 | 0.04 | 0.07 | 0.05 | 84 | 1014.4 |
| 20260509111026 | 50 | 0 | 1.0 | 3.0 | 0.05 | 0.07 | 0.05 | 84 | 1014.5 |
| 20260509110528 | 50 | 186 | 1.0 | 4.0 | 0.05 | 0.07 | 0.05 | 84 | 1014.3 |
| 20260509110042 | 50 | 91 | 0.0 | 4.0 | 0.04 | 0.06 | 0.04 | 84 | 1014.4 |
| 20260509105525 | 50 | 103 | 3.0 | 4.0 | 0.04 | 0.06 | 0.04 | 84 | 1014.4 |
| 20260509105029 | 50 | 99 | 2.0 | 4.0 | 0.04 | 0.06 | 0.04 | 85 | 1014.5 |
| 20260509104548 | 50 | 0 | 0.0 | 4.0 | 0.04 | 0.06 | 0.04 | 83 | 1014.8 |
| 20260509104025 | 51 | 0 | 0.0 | 4.0 | 0.04 | 0.06 | 0.04 | 82 | 1014.8 |
| 20260509103526 | 51 | 88 | 2.0 | 4.0 | 0.03 | 0.05 | 0.03 | 81 | 1014.6 |
| 20260509103037 | 52 | 46 | 1.0 | 3.0 | 0.03 | 0.05 | 0.03 | 77 | 1014.8 |
| 20260509102530 | 52 | 0 | 0.0 | 4.0 | 0.02 | 0.04 | 0.02 | 78 | 1014.8 |
| 20260509102027 | 53 | 0 | 1.0 | 7.0 | 0.02 | 0.04 | 0.02 | 76 | 1014.5 |
| 20260509101537 | 53 | 98 | 2.0 | 7.0 | 0.01 | 0.03 | 0.01 | 71 | 1014.2 |
| 20260509101026 | 54 | 338 | 2.0 | 7.0 | 0.00 | 0.02 | 0.00 | 75 | 1014.6 |
| 20260509100526 | 54 | 296 | 3.0 | 6.0 | 0.00 | 0.02 | 0.00 | 70 | 1014.4 |
| 20260509100040 | 54 | 309 | 2.0 | 6.0 | 0.00 | 0.02 | 0.00 | 68 | 1014.2 |
| 20260509095527 | 54 | 263 | 3.0 | 6.0 | 0.00 | 0.02 | 0.00 | 69 | 1013.8 |
| 20260509095026 | 54 | 277 | 2.0 | 4.0 | 0.00 | 0.02 | 0.00 | 70 | 1013.5 |
| 20260509094538 | 54 | 0 | 1.0 | 5.0 | 0.00 | 0.02 | 0.00 | 73 | 1013.3 |
| 20260509094026 | 53 | 240 | 2.0 | 5.0 | 0.00 | 0.02 | 0.00 | 75 | 1013.1 |
| 20260509093526 | 53 | 0 | 1.0 | 4.0 | 0.00 | 0.02 | 0.00 | 78 | 1012.9 |
| 20260509093039 | 52 | 268 | 0.0 | 1.0 | 0.00 | 0.02 | 0.00 | 81 | 1012.8 |
| 20260509092526 | 52 | 0 | 0.0 | 2.0 | 0.00 | 0.02 | 0.00 | 81 | 1012.7 |
| 20260509092024 | 52 | 0 | 0.0 | 2.0 | 0.00 | 0.02 | 0.00 | 81 | 1012.6 |
| 20260509091537 | 52 | 131 | 0.0 | 2.0 | 0.00 | 0.02 | 0.00 | 81 | 1012.6 |
| 20260509091026 | 52 | 131 | 0.0 | 0.0 | 0.00 | 0.02 | 0.00 | 81 | 1012.7 |
| 20260509090526 | 52 | 0 | 0.0 | 1.0 | 0.00 | 0.02 | 0.00 | 82 | 1012.8 |
| 20260509090049 | 52 | 0 | 0.0 | 2.0 | 0.00 | 0.02 | 0.00 | 81 | 1012.7 |
| 20260509085526 | 53 | 131 | 0.0 | 3.0 | 0.00 | 0.02 | 0.00 | 80 | 1012.8 |
| 20260509085028 | 53 | 131 | 1.0 | 3.0 | 0.00 | 0.02 | 0.00 | 80 | 1012.7 |
| 20260509084541 | 53 | 246 | 1.0 | 2.0 | 0.00 | 0.02 | 0.00 | 80 | 1012.6 |
| 20260509084026 | 53 | 0 | 0.0 | 1.0 | 0.00 | 0.02 | 0.00 | 79 | 1012.7 |
| 20260509083526 | 53 | 0 | 0.0 | 3.0 | 0.00 | 0.02 | 0.00 | 79 | 1012.5 |
| 20260509083044 | 53 | 0 | 0.0 | 3.0 | 0.00 | 0.02 | 0.00 | 79 | 1012.4 |
| 20260509082525 | 53 | 0 | 1.0 | 5.0 | 0.00 | 0.02 | 0.00 | 78 | 1012.4 |
| 20260509082026 | 53 | 259 | 2.0 | 5.0 | 0.00 | 0.02 | 0.00 | 78 | 1012.5 |
| 20260509081543 | 53 | 225 | 2.0 | 5.0 | 0.00 | 0.02 | 0.00 | 78 | 1012.4 |
| 20260509081028 | 53 | 188 | 1.0 | 2.0 | 0.00 | 0.02 | 0.00 | 78 | 1012.5 |
| 20260509080526 | 53 | 184 | 0.0 | 3.0 | 0.00 | 0.02 | 0.00 | 78 | 1012.5 |
| 20260509080037 | 53 | 0 | 0.0 | 3.0 | 0.00 | 0.02 | 0.00 | 78 | 1012.3 |
| 20260509075526 | 53 | 185 | 2.0 | 4.0 | 0.00 | 0.02 | 0.00 | 76 | 1012.3 |
| 20260509075026 | 54 | 184 | 2.0 | 4.0 | 0.00 | 0.02 | 0.00 | 75 | 1012.3 |
| 20260509074536 | 54 | 160 | 1.0 | 3.0 | 0.00 | 0.02 | 0.00 | 75 | 1012.2 |
| 20260509074030 | 54 | 0 | 0.0 | 2.0 | 0.00 | 0.02 | 0.00 | 75 | 1012.4 |
| 20260509073526 | 54 | 278 | 0.0 | 2.0 | 0.00 | 0.02 | 0.00 | 76 | 1012.4 |
| 20260509073039 | 54 | 0 | 0.0 | 3.0 | 0.00 | 0.02 | 0.00 | 76 | 1012.3 |
| 20260509072537 | 54 | 0 | 0.0 | 3.0 | 0.00 | 0.02 | 0.00 | 75 | 1012.4 |
| 20260509072025 | 55 | 278 | 0.0 | 3.0 | 0.00 | 0.02 | 0.00 | 74 | 1011.7 |
| 20260509071540 | 55 | 0 | 0.0 | 3.0 | 0.00 | 0.02 | 0.00 | 72 | 1011.5 |
| 20260509071026 | 55 | 0 | 1.0 | 3.0 | 0.00 | 0.02 | 0.00 | 72 | 1011.5 |
| 20260509070527 | 56 | 0 | 0.0 | 2.0 | 0.00 | 0.02 | 0.00 | 71 | 1011.5 |
| 20260509070037 | 56 | 305 | 1.0 | 2.0 | 0.00 | 0.02 | 0.00 | 71 | 1011.6 |
| 20260509065526 | 56 | 306 | 0.0 | 1.0 | 0.00 | 0.03 | 0.00 | 70 | 1011.8 |
| 20260509065028 | 56 | 306 | 0.0 | 3.0 | 0.00 | 0.03 | 0.00 | 70 | 1011.8 |
| 20260509064537 | 57 | 0 | 0.0 | 3.0 | 0.00 | 0.03 | 0.00 | 69 | 1011.8 |
| 20260509064027 | 57 | 305 | 1.0 | 3.0 | 0.00 | 0.03 | 0.00 | 68 | 1011.8 |
| 20260509063526 | 57 | 58 | 1.0 | 3.0 | 0.00 | 0.03 | 0.00 | 67 | 1011.6 |
| 20260509063036 | 57 | 168 | 0.0 | 2.0 | 0.00 | 0.03 | 0.00 | 67 | 1011.5 |
| 20260509062529 | 57 | 0 | 0.0 | 2.0 | 0.00 | 0.03 | 0.00 | 67 | 1011.3 |
| 20260509062027 | 57 | 0 | 0.0 | 2.0 | 0.00 | 0.03 | 0.00 | 67 | 1011.4 |
| 20260509061542 | 57 | 0 | 0.0 | 3.0 | 0.00 | 0.03 | 0.00 | 66 | 1011.4 |
| 20260509061026 | 58 | 0 | 0.0 | 4.0 | 0.00 | 0.03 | 0.00 | 65 | 1011.4 |
| 20260509060529 | 58 | 67 | 0.0 | 4.0 | 0.00 | 0.03 | 0.00 | 65 | 1011.3 |
| 20260509060038 | 58 | 62 | 2.0 | 4.0 | 0.00 | 0.03 | 0.00 | 64 | 1011.4 |
| 20260509055527 | 59 | 269 | 1.0 | 4.0 | 0.00 | 0.03 | 0.03 | 62 | 1011.4 |
| 20260509055025 | 59 | 263 | 0.0 | 6.0 | 0.00 | 0.03 | 0.03 | 61 | 1011.3 |
| 20260509054548 | 60 | 245 | 2.0 | 6.0 | 0.00 | 0.03 | 0.03 | 59 | 1011.4 |
| 20260509054027 | 61 | 276 | 3.0 | 6.0 | 0.00 | 0.03 | 0.03 | 57 | 1011.3 |
| 20260509053530 | 62 | 226 | 2.0 | 5.0 | 0.00 | 0.03 | 0.03 | 50 | 1011.3 |
| 20260509053129 | 62 | 326 | 1.0 | 5.0 | 0.00 | 0.03 | 0.03 | 50 | 1011.4 |
| 20260509052526 | 63 | 348 | 2.0 | 10.0 | 0.00 | 0.03 | 0.03 | 45 | 1011.3 |
| 20260509052026 | 62 | 317 | 3.0 | 12.0 | 0.00 | 0.03 | 0.03 | 46 | 1011.3 |
| 20260509051545 | 61 | 27 | 6.0 | 12.0 | 0.00 | 0.03 | 0.03 | 48 | 1011.4 |
| 20260509051024 | 58 | 325 | 1.0 | 5.0 | 0.00 | 0.03 | 0.03 | 65 | 1011.5 |
| 20260509050526 | 58 | 277 | 2.0 | 5.0 | 0.00 | 0.03 | 0.03 | 64 | 1011.4 |
| 20260509050047 | 59 | 205 | 2.0 | 8.0 | 0.00 | 0.03 | 0.03 | 64 | 1011.2 |
| 20260509045526 | 59 | 236 | 3.0 | 8.0 | 0.00 | 0.03 | 0.03 | 62 | 1011.1 |
| 20260509045026 | 59 | 165 | 4.0 | 8.0 | 0.00 | 0.03 | 0.03 | 63 | 1011.0 |
| 20260509044539 | 59 | 163 | 4.0 | 8.0 | 0.00 | 0.03 | 0.03 | 62 | 1011.0 |
| 20260509044028 | 59 | 182 | 3.0 | 8.0 | 0.00 | 0.03 | 0.03 | 61 | 1011.1 |
| 20260509043526 | 59 | 175 | 2.0 | 6.0 | 0.00 | 0.03 | 0.03 | 62 | 1011.0 |
| 20260509043037 | 59 | 174 | 3.0 | 6.0 | 0.00 | 0.03 | 0.03 | 60 | 1011.0 |
| 20260509042529 | 60 | 203 | 2.0 | 7.0 | 0.00 | 0.03 | 0.03 | 59 | 1011.1 |
| 20260509042027 | 60 | 277 | 1.0 | 9.0 | 0.00 | 0.03 | 0.03 | 58 | 1011.1 |
| 20260509041536 | 60 | 159 | 4.0 | 9.0 | 0.00 | 0.03 | 0.03 | 57 | 1011.1 |
| 20260509041027 | 61 | 214 | 3.0 | 7.0 | 0.00 | 0.03 | 0.03 | 57 | 1011.1 |
| 20260509040526 | 61 | 0 | 0.0 | 7.0 | 0.00 | 0.03 | 0.03 | 55 | 1011.1 |
| 20260509040037 | 61 | 268 | 1.0 | 7.0 | 0.00 | 0.03 | 0.03 | 55 | 1011.1 |
| 20260509035527 | 61 | 257 | 4.0 | 7.0 | 0.00 | 0.04 | 0.03 | 55 | 1011.0 |
| 20260509035029 | 60 | 221 | 2.0 | 5.0 | 0.00 | 0.04 | 0.03 | 58 | 1010.9 |
| 20260509034536 | 60 | 0 | 1.0 | 7.0 | 0.00 | 0.04 | 0.03 | 59 | 1010.9 |
| 20260509034027 | 60 | 190 | 2.0 | 7.0 | 0.00 | 0.04 | 0.03 | 60 | 1011.0 |
| 20260509033526 | 60 | 263 | 3.0 | 7.0 | 0.00 | 0.04 | 0.03 | 60 | 1011.1 |
| 20260509033039 | 60 | 219 | 3.0 | 7.0 | 0.00 | 0.04 | 0.03 | 62 | 1011.2 |
| 20260509032527 | 60 | 217 | 3.0 | 7.0 | 0.00 | 0.04 | 0.03 | 60 | 1011.2 |
| 20260509032027 | 60 | 226 | 2.0 | 7.0 | 0.00 | 0.04 | 0.03 | 59 | 1011.1 |
| 20260509031538 | 60 | 218 | 3.0 | 7.0 | 0.00 | 0.04 | 0.03 | 60 | 1010.7 |
| 20260509031026 | 60 | 185 | 2.0 | 4.0 | 0.00 | 0.04 | 0.03 | 59 | 1010.6 |
| 20260509030525 | 60 | 194 | 2.0 | 6.0 | 0.00 | 0.04 | 0.03 | 59 | 1010.4 |
| 20260509030039 | 60 | 190 | 3.0 | 6.0 | 0.01 | 0.04 | 0.03 | 57 | 1010.3 |
| 20260509025526 | 60 | 200 | 2.0 | 4.0 | 0.01 | 0.04 | 0.03 | 57 | 1010.1 |
| 20260509025026 | 60 | 212 | 0.0 | 4.0 | 0.01 | 0.04 | 0.03 | 61 | 1010.1 |
| 20260509024542 | 60 | 0 | 0.0 | 8.0 | 0.01 | 0.04 | 0.03 | 58 | 1010.0 |
| 20260509024025 | 60 | 202 | 2.0 | 8.0 | 0.01 | 0.04 | 0.03 | 60 | 1010.0 |
| 20260509023526 | 60 | 176 | 4.0 | 14.0 | 0.01 | 0.04 | 0.03 | 59 | 1009.9 |
| 20260509023047 | 61 | 195 | 4.0 | 18.0 | 0.01 | 0.04 | 0.03 | 59 | 1010.0 |
| 20260509022530 | 61 | 198 | 8.0 | 18.0 | 0.01 | 0.04 | 0.03 | 58 | 1010.1 |
| 20260509022030 | 62 | 214 | 6.0 | 14.0 | 0.01 | 0.04 | 0.03 | 55 | 1010.1 |
| 20260509021539 | 64 | 239 | 1.0 | 5.0 | 0.01 | 0.04 | 0.03 | 62 | 1010.3 |
| 20260509021026 | 65 | 286 | 2.0 | 5.0 | 0.01 | 0.04 | 0.03 | 53 | 1010.1 |
| 20260509020526 | 66 | 275 | 0.0 | 2.0 | 0.00 | 0.03 | 0.02 | 50 | 1010.0 |
| 20260509020044 | 66 | 0 | 0.0 | 0.0 | 0.00 | 0.03 | 0.02 | 45 | 1009.8 |
| 20260509015530 | 66 | 0 | 0.0 | 0.0 | 0.00 | 0.04 | 0.02 | 45 | 1009.8 |
| 20260509015027 | 67 | 0 | 0.0 | 0.0 | 0.00 | 0.04 | 0.02 | 45 | 1009.7 |
| 20260509014539 | 67 | 0 | 0.0 | 0.0 | 0.00 | 0.04 | 0.02 | 44 | 1009.7 |
| 20260509014024 | 67 | 0 | 0.0 | 2.0 | 0.00 | 0.04 | 0.02 | 43 | 1009.6 |
| 20260509013528 | 67 | 0 | 0.0 | 2.0 | 0.00 | 0.04 | 0.02 | 43 | 1009.7 |
| 20260509013040 | 68 | 50 | 1.0 | 3.0 | 0.00 | 0.04 | 0.02 | 42 | 1009.7 |
| 20260509012524 | 68 | 30 | 0.0 | 3.0 | 0.00 | 0.04 | 0.02 | 41 | 1009.6 |
| 20260509012026 | 68 | 47 | 1.0 | 3.0 | 0.00 | 0.04 | 0.02 | 42 | 1009.7 |
| 20260509011540 | 68 | 44 | 1.0 | 3.0 | 0.00 | 0.04 | 0.02 | 42 | 1009.7 |
| 20260509011027 | 68 | 0 | 1.0 | 4.0 | 0.00 | 0.04 | 0.02 | 41 | 1009.6 |
| 20260509010525 | 68 | 0 | 1.0 | 4.0 | 0.00 | 0.04 | 0.02 | 39 | 1009.7 |
| 20260509010038 | 68 | 34 | 2.0 | 5.0 | 0.00 | 0.04 | 0.02 | 37 | 1009.5 |
| 20260509005526 | 69 | 20 | 2.0 | 5.0 | 0.00 | 0.09 | 0.02 | 38 | 1009.6 |
| 20260509005024 | 69 | 37 | 2.0 | 7.0 | 0.00 | 0.09 | 0.02 | 37 | 1009.6 |
| 20260509004541 | 69 | 46 | 3.0 | 7.0 | 0.00 | 0.09 | 0.02 | 38 | 1009.5 |
| 20260509004025 | 69 | 51 | 2.0 | 5.0 | 0.00 | 0.09 | 0.02 | 38 | 1009.6 |
| 20260509003525 | 69 | 27 | 2.0 | 4.0 | 0.00 | 0.09 | 0.02 | 36 | 1009.6 |
| 20260509003055 | 69 | 52 | 0.0 | 4.0 | 0.00 | 0.09 | 0.02 | 36 | 1009.7 |
| 20260509002525 | 69 | 0 | 0.0 | 5.0 | 0.00 | 0.09 | 0.02 | 35 | 1009.7 |
| 20260509002024 | 70 | 63 | 2.0 | 6.0 | 0.00 | 0.09 | 0.02 | 35 | 1009.7 |
| 20260509001542 | 70 | 43 | 3.0 | 9.0 | 0.00 | 0.09 | 0.02 | 34 | 1009.7 |
| 20260509001025 | 71 | 60 | 3.0 | 9.0 | 0.00 | 0.09 | 0.02 | 35 | 1009.7 |
| 20260509000528 | 71 | 86 | 5.0 | 9.0 | 0.00 | 0.09 | 0.02 | 35 | 1009.6 |
| 20260509000044 | 70 | 0 | 1.0 | 7.0 | 0.00 | 0.09 | 0.02 | 35 | 1009.7 |
| 20260508235525 | 71 | 39 | 2.0 | 7.0 | 0.00 | 0.09 | 0.02 | 37 | 1009.7 |
| 20260508235025 | 70 | 340 | 2.0 | 9.0 | 0.00 | 0.09 | 0.02 | 37 | 1009.7 |
| 20260508234541 | 70 | 23 | 5.0 | 10.0 | 0.00 | 0.09 | 0.02 | 36 | 1009.8 |
| 20260508234025 | 71 | 57 | 4.0 | 10.0 | 0.00 | 0.09 | 0.02 | 35 | 1009.8 |
| 20260508233525 | 71 | 82 | 6.0 | 10.0 | 0.00 | 0.09 | 0.02 | 34 | 1009.7 |
| 20260508233037 | 72 | 26 | 3.0 | 7.0 | 0.00 | 0.09 | 0.02 | 35 | 1009.8 |
| 20260508232524 | 72 | 31 | 2.0 | 7.0 | 0.00 | 0.09 | 0.02 | 33 | 1010.0 |
| 20260508232027 | 72 | 198 | 1.0 | 8.0 | 0.00 | 0.09 | 0.02 | 37 | 1010.0 |
| 20260508231548 | 72 | 210 | 2.0 | 8.0 | 0.00 | 0.09 | 0.02 | 35 | 1010.0 |
| 20260508231024 | 72 | 219 | 2.0 | 4.0 | 0.00 | 0.09 | 0.02 | 35 | 1010.0 |
| 20260508230523 | 72 | 217 | 1.0 | 5.0 | 0.00 | 0.09 | 0.02 | 35 | 1010.2 |
| 20260508230042 | 72 | 117 | 1.0 | 5.0 | 0.00 | 0.09 | 0.02 | 36 | 1010.3 |
| 20260508225528 | 72 | 204 | 1.0 | 5.0 | 0.00 | 0.09 | 0.02 | 34 | 1010.4 |
| 20260508225027 | 71 | 323 | 1.0 | 5.0 | 0.00 | 0.09 | 0.02 | 37 | 1010.4 |
| 20260508224544 | 71 | 26 | 0.0 | 6.0 | 0.00 | 0.09 | 0.02 | 35 | 1010.6 |
| 20260508224023 | 71 | 154 | 2.0 | 7.0 | 0.00 | 0.09 | 0.02 | 36 | 1010.6 |
| 20260508223526 | 70 | 190 | 2.0 | 9.0 | 0.00 | 0.09 | 0.02 | 37 | 1010.8 |
| 20260508223038 | 70 | 180 | 3.0 | 12.0 | 0.00 | 0.09 | 0.02 | 38 | 1010.8 |
| 20260508222523 | 70 | 137 | 4.0 | 12.0 | 0.00 | 0.09 | 0.02 | 36 | 1010.9 |
| 20260508222023 | 70 | 208 | 2.0 | 12.0 | 0.00 | 0.09 | 0.02 | 37 | 1011.0 |
| 20260508221537 | 70 | 330 | 4.0 | 7.0 | 0.00 | 0.09 | 0.02 | 38 | 1011.0 |
| 20260508221025 | 70 | 1 | 2.0 | 7.0 | 0.00 | 0.09 | 0.02 | 36 | 1011.1 |
| 20260508220526 | 70 | 108 | 2.0 | 7.0 | 0.00 | 0.09 | 0.02 | 38 | 1011.2 |
| 20260508220037 | 70 | 37 | 1.0 | 4.0 | 0.00 | 0.09 | 0.02 | 40 | 1011.2 |
| 20260508215525 | 69 | 212 | 1.0 | 7.0 | 0.00 | 0.09 | 0.02 | 37 | 1011.3 |
| 20260508215027 | 69 | 162 | 2.0 | 7.0 | 0.00 | 0.09 | 0.02 | 37 | 1011.4 |
| 20260508214542 | 69 | 103 | 1.0 | 9.0 | 0.00 | 0.09 | 0.02 | 38 | 1011.5 |
| 20260508214023 | 69 | 151 | 3.0 | 10.0 | 0.00 | 0.09 | 0.02 | 37 | 1011.5 |
| 20260508213523 | 69 | 131 | 5.0 | 10.0 | 0.00 | 0.09 | 0.02 | 39 | 1011.6 |
| 20260508213042 | 69 | 125 | 4.0 | 9.0 | 0.00 | 0.09 | 0.02 | 39 | 1011.6 |
| 20260508212526 | 70 | 115 | 3.0 | 9.0 | 0.00 | 0.09 | 0.02 | 37 | 1011.6 |
| 20260508212023 | 69 | 247 | 2.0 | 10.0 | 0.00 | 0.09 | 0.02 | 40 | 1011.8 |
| 20260508211543 | 69 | 219 | 4.0 | 10.0 | 0.00 | 0.09 | 0.02 | 39 | 1011.8 |
| 20260508211023 | 69 | 179 | 5.0 | 9.0 | 0.00 | 0.09 | 0.02 | 38 | 1011.9 |
| 20260508210524 | 69 | 109 | 1.0 | 6.0 | 0.00 | 0.09 | 0.02 | 40 | 1011.9 |
| 20260508210047 | 68 | 158 | 3.0 | 6.0 | 0.00 | 0.09 | 0.02 | 44 | 1012.0 |
| 20260508205523 | 68 | 0 | 2.0 | 9.0 | 0.00 | 0.09 | 0.02 | 38 | 1011.9 |
| 20260508205025 | 68 | 85 | 3.0 | 9.0 | 0.00 | 0.09 | 0.02 | 39 | 1012.1 |
| 20260508204545 | 68 | 160 | 5.0 | 9.0 | 0.00 | 0.09 | 0.02 | 40 | 1012.2 |
| 20260508204023 | 67 | 152 | 5.0 | 8.0 | 0.00 | 0.09 | 0.02 | 43 | 1012.2 |
| 20260508203524 | 67 | 66 | 2.0 | 10.0 | 0.00 | 0.09 | 0.02 | 41 | 1012.2 |
| 20260508203049 | 67 | 94 | 4.0 | 10.0 | 0.00 | 0.09 | 0.02 | 43 | 1012.3 |
| 20260508202524 | 67 | 97 | 4.0 | 9.0 | 0.00 | 0.09 | 0.02 | 43 | 1012.4 |
| 20260508202026 | 66 | 34 | 4.0 | 8.0 | 0.00 | 0.09 | 0.02 | 42 | 1012.4 |
| 20260508201537 | 66 | 71 | 3.0 | 10.0 | 0.00 | 0.09 | 0.02 | 42 | 1012.4 |
| 20260508201026 | 66 | 17 | 6.0 | 10.0 | 0.00 | 0.09 | 0.02 | 41 | 1012.4 |
| 20260508200525 | 66 | 0 | 3.0 | 7.0 | 0.00 | 0.09 | 0.02 | 41 | 1012.5 |
| 20260508200041 | 66 | 92 | 3.0 | 7.0 | 0.00 | 0.09 | 0.02 | 41 | 1012.5 |
| 20260508195526 | 66 | 102 | 2.0 | 11.0 | 0.00 | 0.09 | 0.02 | 40 | 1012.7 |
| 20260508195025 | 66 | 120 | 4.0 | 11.0 | 0.00 | 0.09 | 0.02 | 43 | 1012.8 |
| 20260508194537 | 66 | 112 | 4.0 | 11.0 | 0.00 | 0.09 | 0.02 | 47 | 1012.9 |
| 20260508194024 | 66 | 108 | 5.0 | 11.0 | 0.00 | 0.09 | 0.02 | 44 | 1013.0 |
| 20260508193522 | 66 | 25 | 2.0 | 8.0 | 0.00 | 0.09 | 0.02 | 45 | 1013.0 |
| 20260508193042 | 66 | 126 | 4.0 | 8.0 | 0.00 | 0.09 | 0.02 | 48 | 1013.1 |
| 20260508192525 | 65 | 0 | 2.0 | 9.0 | 0.00 | 0.09 | 0.02 | 44 | 1013.1 |
| 20260508192025 | 65 | 222 | 4.0 | 11.0 | 0.00 | 0.09 | 0.02 | 45 | 1013.3 |
| 20260508191539 | 65 | 188 | 1.0 | 11.0 | 0.00 | 0.09 | 0.02 | 47 | 1013.4 |
| 20260508191025 | 65 | 80 | 4.0 | 11.0 | 0.00 | 0.09 | 0.02 | 46 | 1013.5 |
| 20260508190524 | 65 | 98 | 3.0 | 9.0 | 0.00 | 0.09 | 0.02 | 47 | 1013.6 |
| 20260508190047 | 64 | 99 | 2.0 | 9.0 | 0.00 | 0.09 | 0.02 | 49 | 1013.7 |
| 20260508185529 | 64 | 116 | 2.0 | 8.0 | 0.00 | 0.09 | 0.02 | 48 | 1013.9 |